Monte Terminillo, Italy

3:42 AM CEST on June 24, 2017 (GMT +0200)
Monte Terminillo

Weather History for LIRK - February, 2013

Change the Weather History Date:

Tuesday, February 26, 2013

  Actual Average Record
Temperature  
Mean Temperature 26 °F -  
Max Temperature 28 °F 34 °F 46 °F (2017)
Min Temperature 24 °F 26 °F 14 °F (2011)
Degree Days  
Heating Degree Days 39    
Moisture  
Dew Point 26 °F    
Average Humidity 99    
Maximum Humidity 100    
Minimum Humidity 93    
Precipitation  
Precipitation 0.00 in -1.71 in - ()
Sea Level Pressure  
Sea Level Pressure 29.92 in    
Wind  
Wind Speed 13 mph ()    
Max Wind Speed 21 mph    
Max Gust Speed -    
Visibility 3.6 miles    
Events Fog    
Averages and records for this station are not official NWS values.
T = Trace of Precipitation, MM = Missing Value Source: Averaged Metar Reports

Daily Weather History Graph

Daily Weather History Graph

Search for Another Location

Airport or City:

Trip Planner

Search our weather history database for the weather conditions in past years. The results will help you decide how hot, cold, wet, or windy it might be!

Date:

Astronomy

Feb. 26, 2013 Rise Set
Actual Time 6:48 AM CET 5:54 PM CET
Civil Twilight 6:20 AM CET 6:22 PM CET
Nautical Twilight 5:47 AM CET 6:55 PM CET
Astronomical Twilight 5:14 AM CET 7:27 PM CET
Moon 6:55 PM CET (2/26) 6:40 AM CET (2/26)
Length of Visible Light 12h 02m
Length of Day
11h 05m
Full, 100% of the Moon is Illuminated
Feb 26
Full
Mar 4
Last Quarter
Mar 11
New
Mar 19
First Quarter
Mar 27
Full

Hourly Weather History & Observations

Time (CET) Temp. Dew Point Humidity Pressure Visibility Wind Dir Wind Speed Gust Speed Precip Events Conditions
12:55 AM 26.6 °F 26.6 °F 100% 29.86 in 0.0 mi North - - N/A Fog Light Freezing Fog
1:00 AM 27 °F 27 °F 98%  in 0 mi ENE 20.7 mph - -  
1:55 AM 26.6 °F 26.6 °F 100% 29.86 in 0.0 mi North - - N/A Fog Light Freezing Fog
3:55 AM 24.8 °F 24.8 °F 100% 29.89 in 0.0 mi North - - N/A Fog Light Freezing Fog
4:55 AM 24.8 °F 24.8 °F 100% 29.89 in 0.0 mi North - - N/A Fog Light Freezing Fog
5:55 AM 24.8 °F 24.8 °F 100% 29.89 in - North - - N/A   Scattered Clouds
6:55 AM 24.8 °F 23.0 °F 93% 29.89 in - North - - N/A   Partly Cloudy
7:00 AM 24 °F 24 °F 99%  in 7 mi ENE 19.6 mph - -  
7:55 AM 24.8 °F 23.0 °F 93% 29.89 in - North - - N/A   Partly Cloudy
8:55 AM 24.8 °F 24.8 °F 100% 29.89 in - North - - N/A   Partly Cloudy
9:55 AM 24.8 °F 23.0 °F 93% 29.89 in - North - - N/A   Partly Cloudy
10:55 AM 24.8 °F 24.8 °F 100% 29.92 in - North - - N/A   Clear
12:55 PM 24.8 °F 24.8 °F 100% 29.92 in - North - - N/A   Scattered Clouds
1:00 PM 25 °F 25 °F 99%  in 16 mi ENE 18.4 mph - -  
1:55 PM 24.8 °F 24.8 °F 100% 29.92 in - North - - N/A   Scattered Clouds
2:55 PM 24.8 °F 24.8 °F 100% 29.92 in - North - - N/A   Scattered Clouds
3:55 PM 26.6 °F 26.6 °F 100% 29.95 in - North - - N/A   Scattered Clouds
4:55 PM 26.6 °F 26.6 °F 100% 29.95 in - North - - N/A   Scattered Clouds
5:55 PM 26.6 °F 26.6 °F 100% 29.95 in - North - - N/A   Partly Cloudy
6:55 PM 26.6 °F 26.6 °F 100% 29.95 in - North - - N/A   Scattered Clouds
7:00 PM 27 °F 27 °F 100%  in 6 mi NE 11.5 mph - -  
7:55 PM 26.6 °F 26.6 °F 100% 29.95 in - North - - N/A   Scattered Clouds
8:55 PM 28.4 °F 28.4 °F 100% 29.95 in - North - - N/A   Clear
9:55 PM 28.4 °F 28.4 °F 100% 29.95 in - North - - N/A   Clear
10:55 PM 28.4 °F 28.4 °F 100% 29.95 in - North - - N/A   Clear
11:55 PM 28.4 °F 28.4 °F 100% 29.95 in - North - - N/A   Clear